Regional Weather Roundup
Issued by NWS

Home | Current Version | Previous Version | Text Only | Print | Product List | Glossary Off
Versions: 1 2 3 4 5 6 7 8 9 10 11 12 13 14 15 16 17 18 19 20 21 22 23 24 25 26 27 28 29 30 31 32 33 34 35 36 37 38 39 40 41 42 43 44 45 46 47 48 49 50

000
ASUS43 KMPX 242010
RWRMN
WEATHER ROUNDUP FOR MINNESOTA
NATIONAL WEATHER SERVICE TWIN CITIES/CHANHASSEN MN
300 PM CDT TUE MAY 24 2016


NOTE: "FAIR" INDICATES FEW OR NO CLOUDS BELOW 12,000 FEET WITH NO
SIGNIFICANT WEATHER AND/OR OBSTRUCTIONS TO VISIBILITY. N/A MEANS
CURRENT SKY AND/OR WEATHER CONDITIONS ARE NOT AVAILABLE.

MNZ060>063-068>070-242100-
   Twin Cities Metro

CITY           SKY/WX    TMP DP  RH WIND       PRES   REMARKS
TWIN CITIES    MOSUNNY   84  55  36 NW6       29.88F
ST PAUL        MOSUNNY   83  56  39 VRB6      29.88F
CRYSTAL        SUNNY     81  54  39 CALM      29.87F
BLAINE         MOSUNNY   82  57  42 SW6       29.88F
EDEN PRAIRIE   SUNNY     83  53  35 VRB3      29.87F
SOUTH ST PAUL  MOSUNNY   83  52  35 W6        29.88S
LAKE ELMO      FAIR      79  57  47 NW6       29.90S
$$
MNZ001>005-007-008-013>017-022>024-027-028-242100-
   Northwest Minnesota

CITY           SKY/WX    TMP DP  RH WIND       PRES   REMARKS
BEMIDJI        SUNNY     78  47  33 W10G23    29.88S
HALLOCK        SUNNY     75  52  43 NE7       29.87S
ROSEAU         SUNNY     75  52  43 W9        29.88S
WARROAD        SUNNY     72  55  56 NE7       29.88S
THIEF RVR FALL SUNNY     73  48  40 W9        29.90S
CROOKSTON      SUNNY     75  54  46 CALM      29.88S
FOSSTON        MOSUNNY   75  52  43 W7        29.89F
DETROIT LAKES  SUNNY     77  50  38 CALM      29.90S
MOORHEAD       MOSUNNY   82  45  26 W5        29.86S
PARK RAPIDS    PTSUNNY   81  53  37 SW9       29.88S
MAHNOMEN       FAIR      77  53  43 NW3       29.87S
$$
MNZ006-009>011-018-025>026-242100-
   North Central Minnesota

CITY           SKY/WX    TMP DP  RH WIND       PRES   REMARKS
BAUDETTE       SUNNY     77  49  37 N10       29.86S
FLAG ISLAND    SUNNY     66  52  59 N9        29.88R
INTL FALLS     MOSUNNY   79  47  32 SW5G17    29.85F
WASKISH        SUNNY     73  50  43 W9        29.88R
BIG FORK       SUNNY     81  46  30 SW15G22   29.87S
LONGVILLE      SUNNY     77  52  41 NW5       29.90S
CRANE LAKE     MOSUNNY   75  50  41 SW8       29.88S
ORR            MOSUNNY   79  45  29 W6        29.84F
COOK           MOSUNNY   75  52  43 SE7       29.87F
WALKER         FAIR      74  51  43 S5        29.89S
$$
MNZ012-019>021-037-242100-
   Northeast Minnesota

CITY           SKY/WX    TMP DP  RH WIND       PRES   REMARKS
DULUTH         MOSUNNY   75  54  47 N3        29.90R
ELY            MOSUNNY   73  50  43 SE5       29.89S
HIBBING        SUNNY     78  51  38 NW7       29.88S
EVELETH        MOSUNNY   73  48  40 SW3       29.90R
DULUTH HARBOR  SUNNY     61  57  88 E10       29.90R
TWO HARBORS      N/A     72  61  68 E10       29.89R
SILVER BAY     SUNNY     72  57  60 NE10      29.89S
GRAND MARAIS     N/A     49  48  97 NE7       29.94S
G MARAIS ARPRT FOG       57  54  88 E10       29.97R VSB 1/4
$$
MNZ029>031-032-039>041-046>048-054>057-064-242100-
   West Central Minnesota

CITY           SKY/WX    TMP DP  RH WIND       PRES   REMARKS
FERGUS FALLS   SUNNY     81  52  36 S6        29.81F
WHEATON        SUNNY     86  54  32 CALM      29.85S
MORRIS         SUNNY     84  54  34 S6        29.84S
ALEXANDRIA     MOSUNNY   79  50  36 E3        29.88F
ELBOW LAKE     FAIR      80  49  33 SE5       29.85F
WADENA         SUNNY     81  50  34 CALM      29.87S
GLENWOOD       MOSUNNY   82  55  39 E13       29.88S
APPLETON       SUNNY     84  46  26 S6        29.83F
BENSON         MOSUNNY   82  48  30 SE3       29.84F
ORTONVILLE     MOSUNNY   84  48  28 W6        29.84F
MADISON        SUNNY     84  46  26 SW9G16    29.84F
WILLMAR        FAIR      82  63  51 E9        29.88S
$$
MNZ033>034-036-042>043-049>051-058-059-242100-
   Central Minnesota

CITY           SKY/WX    TMP DP  RH WIND       PRES   REMARKS
ST CLOUD       MOSUNNY   77  58  51 S7        29.88S
SAUK CENTRE    FAIR      79  58  49 E3        29.89S
PAYNESVILLE    SUNNY     80  54  40 SE8       29.89S
AITKIN         SUNNY     81  45  28 CALM      29.88S
PINE RIVER     SUNNY     77  55  47 SE5       29.93S
BRAINERD       SUNNY     79  53  40 SE5       29.89S
STAPLES        SUNNY     81  46  30 SW3       29.87F
LONG PRAIRIE   FAIR      79  54  41 S6        29.89S
LITTLE FALLS   MOSUNNY   79  50  36 N3        29.88F
LITCHFIELD     SUNNY     79  63  57 SE6       29.89F
BUFFALO        SUNNY     78  58  50 E3        29.90S
MAPLE LAKE     SUNNY     79  64  60 SE3       29.90S
HUTCHINSON     SUNNY     80  64  58 CALM      29.89S
$$
MNZ037-044-045-052-053-242100-
   East Central Minnesota

CITY           SKY/WX    TMP DP  RH WIND       PRES   REMARKS
PRINCETON      MOSUNNY   79  57  47 CALM      29.88F
MORA           SUNNY     75  54  46 W6        29.90S
CAMBRIDGE        N/A     81  61  50 W5        29.87S
RUSH CITY      SUNNY     79  59  50 N3        29.89F
MOOSE LAKE     SUNNY     77  55  47 CALM      29.88S
HINCKLEY       FAIR      77  55  47 N6        29.89S
CLOQUET        PTSUNNY   73  52  46 N3        29.89S
MCGREGOR       SUNNY     79  52  38 SW5       29.89S
$$
MNZ071>073-080-081-089-090-097-098-242100-
   Southwest Minnesota

CITY           SKY/WX    TMP DP  RH WIND       PRES   REMARKS
MONTEVIDEO     MOSUNNY   82  54  36 CALM      29.86S
GRANITE FALLS  MOSUNNY   87  51  28 S9        29.86F
CANBY          SUNNY     86  48  26 W3        29.87S
MARSHALL       SUNNY     85  48  27 SW10      29.86S
REDWOOD FALLS  SUNNY     81  62  52 S9        29.86F
OLIVIA         SUNNY     77  63  61 SE7       29.86F
PIPESTONE      SUNNY     82  41  23 NW7       29.89S
WINDOM         SUNNY     81  63  54 CALM      29.89S
WORTHINGTON    SUNNY     78  63  59 VRB5      29.90S
JACKSON        SUNNY     79  59  50 S5        29.91R
TRACY          MOSUNNY   84  52  32 CALM      29.87S
SLAYTON        SUNNY     83  43  24 W10       29.90S
$$
MNZ065>067-074>077-082>085-091>093-242100-
   South Central Minnesota

CITY           SKY/WX    TMP DP  RH WIND       PRES   REMARKS
MANKATO        PTSUNNY   81  59  47 CALM      29.88F
NEW ULM        MOSUNNY   81  57  44 S6        29.87S
ST JAMES       SUNNY     75  57  53 S6        29.89S
FAIRMONT       SUNNY     79  59  50 CALM      29.89S
GLENCOE        SUNNY     81  64  57 CALM      29.87F
FARIBAULT      MOSUNNY   84  57  39 S5        29.89S
OWATONNA       CLOUDY    82  54  36 S5        29.89F
WASECA         MOSUNNY   81  52  36 S7        29.90F
ALBERT LEA     SUNNY     79  59  50 SE6       29.91S
$$
MNZ078>079-086>088-094>096-242100-
   Southeast Minnesota

CITY           SKY/WX    TMP DP  RH WIND       PRES   REMARKS
ROCHESTER      CLOUDY    77  62  59 SW7       29.92F
RED WING       MOSUNNY   82  55  39 N3        29.87F
STANTON        MOSUNNY   82  54  38 W5        29.87F
DODGE CENTER   CLOUDY    82  55  39 S3        29.91F
WINONA         MOSUNNY   79  55  44 NW7       29.90F
AUSTIN         MOSUNNY   75  63  64 S3        29.92S
PRESTON        SUNNY     77  58  52 CALM      29.93S
$$
ABBREVIATIONS USED IN REMARKS
   TC - TEMPERATURES IN CELSIUS
  WCI - WIND CHILL INDEX
   HX - HEAT INDEX
  VSB - VISIBILITY
$$



USA.gov is the U.S. government's official web portal to all federal, state and local government web resources and services.